**Search for your results by entering your last name OR bib number OR search by age group to compare your stats with others
Individual Search
 
Bib:
Last Name:
All Participants Search
 
Top Ten Women
PlaceNameTimePace
1.Sky Canaves1:25:21.486:31/M
2.Kier Lewis1:33:11.367:07/M
3.Carrie Chelich1:33:48.747:10/M
4.Cristina Kulakowski1:38:55.067:33/M
5.Leslie Piggott1:40:18.887:39/M
6.Linda Wagers1:40:24.047:40/M
7.Allison Graddy1:41:10.207:43/M
8.Enid Schantz-Hagelberg1:42:09.387:48/M
9.Taylor Cheney1:42:17.617:48/M
10.Nancy Nickson1:42:20.667:49/M
Top Ten Men
PlaceNameTimePace
1.Mark Pinales1:13:27.125:36/M
2.Will Nation1:13:47.325:38/M
3.Ryan Hess1:19:38.076:05/M
4.Michael Dixon1:22:35.596:18/M
5.Tommy Pyon1:24:48.766:28/M
6.Adam Hammons1:24:49.426:28/M
7.Clark Pederson1:25:58.236:34/M
8.Rob Coe1:26:09.596:35/M
9.Brian Mulry1:26:12.346:35/M
10.Will Meredith1:30:23.746:54/M
Contact us for results help

Gallery of Events

Contact Us

Address:
172 Trademark Drive
Buda, Texas 78610

Phone:
(512) 386 - 7966

Email:
info@cadencesports.com